Location: Newark
(48.1500°N, 2.9667°W)
Time: 06:16:26
(UTC+00:00)

Transit 2A - Pass Details

Date: 25 January 2020
Orbit: 600 x 959 km, 66.7° (Epoch: 17 February)

Event Time Altitude Azimuth Distance (km) Brightness Sun altitude
Rises 03:04:56 0° 330° (NNW) 2,923 - -46.5°
Reaches altitude 10° 03:07:37 10° 347° (NNW) 2,053 - -46.1°
Maximum altitude 03:11:14 22° 38° (NE) 1,473 - -45.5°
Drops below altitude 10° 03:15:03 10° 89° (E) 2,195 - -45.0°
Exits shadow 03:16:14 - 97° (E) 2,571 9.2 -44.8°
Sets 03:18:01 0° 104° (ESE) 3,184 9.7 -44.5°
